Погода в Сухой

Россия / Республика Бурятия     52°32′40″N   107°06′45″E
темп.,
°C
ветер,
м/с
пор.,
м/с
влажн.,
%
обл.,
%
осадки,
мм/ч
давл.,
гПа
погр.,
м
25 октября, пн
пн2523:00+4ю668517 0.0 1021166
02:00+4ю6783100 0.0 1020228
05:00+5ю577574 0.0 1019217
08:00+5зюз5770100 0.0 1021319
11:00+5з5882100 1.0 1023861
14:00+5зюз697794 1.6 1023599
17:00+6зюз337025 0.2 102356
20:00+5юз45765 0.2 102487
26 октября, вт
вт2623:00+4ю678378 0.0 1024172
02:00+4ююв457114 0.0 102294
05:00+4ю446864 0.0 1019101
08:00+4ю586830 0.0 1019234
11:00+6ююз696272 0.0 1019316
14:00+7юз5762100 0.0 1019161
17:00+7ю556478 0.0 101939
20:00+7ю44665 0.0 102033
27 октября, ср
ср2723:00+6ююв33705 0.0 101924
02:00+5в33706 0.0 101827
05:00+5в337012 0.0 101634
08:00+5св236872 0.0 101551
11:00+7св34645 0.0 1015133
14:00+6ссв54715 0.0 1015328
17:00+6св33775 0.0 101789
20:00+6юз11747 0.0 101912
28 октября, чт
чт2823:00+5ю447826 0.0 1021133
02:00+5ю33796 0.0 1021111
05:00+5ююв1179100 0.0 102047
08:00+4ю017661 0.0 102167
11:00+5з2176100 0.0 1021167
14:00+5юз1176100 0.0 1021149
17:00+5ссв2273100 0.0 1023180
20:00+4всв1276100 0.0 1025176
29 октября, пт
пт2923:00+3ссв6674100 0.0 1028695
02:00+3ссв6755100 0.1 1030801
05:00+2св565495 0.0 1031793
08:00+1всв3352100 0.0 1033750
11:00+2всв224874 0.0 1034566
14:00+3св32495 0.0 1033463
17:00+2св55551 0.0 1032305
20:00+2всв44570 0.0 1033311